Regional Weather Roundup
Issued by NWS Jackson, KY

Home | Current Version | Previous Version | Text Only | Print | Product List | Glossary Off
Versions: 1 2 3 4 5 6 7 8 9 10 11 12 13 14 15 16 17 18 19 20 21 22 23 24 25 26 27 28 29 30 31 32 33 34 35 36 37 38 39 40 41 42 43 44 45 46 47 48 49 50

000
ASUS43 KJKL 280410
RWRJKL

EAST KENTUCKY HOURLY WEATHER ROUNDUP
NATIONAL WEATHER SERVICE JACKSON KY
1200 AM EDT THU AUG 28 2014

NOTE: "FAIR" INDICATES FEW OR NO CLOUDS BELOW 12,000 FEET WITH
NO SIGNIFICANT WEATHER AND/OR OBSTRUCTIONS TO VISIBILITY.

* THESE REPORTS ARE NOT UNDER NWS QUALITY CONTROL AND MAY NOT
  REPORT WEATHER SUCH AS PRECIPITATION AND FOG.

KYZ079-080-083-085-087-088-110-112-115-119-120-280500
...EASTERN KENTUCKY...

CITY           SKY/WX    TMP DP  RH WIND       PRES   REMARKS
JACKSON        MOCLDY    74  68  81 CALM      30.09S
LONDON         PTCLDY    73  69  87 CALM      30.09S
SOMERSET*      MOCLDY    72  72 100 CALM      30.09S FOG
MONTICELLO*    CLEAR     71  70  97 CALM      30.09F FOG
WILLIAMSBURG*  CLEAR     68  68 100 CALM      30.09
MIDDLESBORO*   CLEAR     67  65  93 CALM      30.11R
HARLAN APT*    CLEAR     66  66 100 MISG      30.12S
BLACK MTN*       N/A     64  63  94 NE5         N/A
PIKEVILLE APT* CLEAR     72  68  88 CALM      30.09S
BIG SANDY*     MOCLDY    73  70  89 SW3       30.07S
MOREHEAD APT*  CLOUDY    75  70  83 CALM      30.09S
$$

KYZ035-036-041-042-044-050-067-078-099-280500
...CENTRAL KENTUCKY...

CITY           SKY/WX    TMP DP  RH WIND       PRES   REMARKS
MT STERLING*   MOCLDY    72  68  88 CALM      30.08S
FLEMING/MASON* CLEAR     73  70  88 N5        30.08S
DANVILLE*      PTCLDY    72  70  94 CALM      30.09S
RICHMOND*      MOCLDY    73  68  83 CALM      30.07F
LEXINGTON      MOCLDY    72  68  87 CALM      30.07F
FRANKFORT      MOCLDY    71  70  96 CALM      30.06S
$$

KYZ091>093-OHZ055-061-077-WVZ005-015-034-035-042-280500
...SOUTHERN OHIO/WEST VIRGINIA...

CITY           SKY/WX    TMP DP  RH WIND       PRES   REMARKS
COVINGTON      PTCLDY    77  69  76 N7        30.08R
COLUMBUS       CLEAR     72  62  71 NE8       30.07R
DAYTON         CLEAR     72  66  81 N5        30.09R
WILMINGTON     CLEAR     70  67  90 N3        30.08R
HUNTINGTON     CLOUDY    74  73  97 CALM      30.05R FOG
CHARLESTON     TSTM      71  71 100 SW7       30.05S FOG
PINEVILLE*     PTCLDY    68  68 100 MISG      30.14F FOG
BECKLEY        CLEAR     68  64  87 CALM      30.12F
BLUEFIELD      CLEAR     68  62  81 SW3       30.16F
$$

VAZ002-007-008-TNZ017-027-036-066-071-280500
...SOUTHWEST VIRGINIA/EAST TENNESSEE...

CITY           SKY/WX    TMP DP  RH WIND       PRES   REMARKS
WISE*          CLEAR     66  59  77 CALM      30.17S
JONESVILLE*      N/A     64  64 100 CALM      30.12S
ABINGDON*      CLEAR     66  63  90 CALM      30.12S
BRISTOL        PTCLDY    65  59  81 CALM      30.10S
KNOXVILLE      CLEAR     70  65  84 NE3       30.06S
OAK RIDGE      CLEAR     70  66  87 CALM      30.09S
CROSSVILLE     CLEAR     70  64  81 CALM      30.13S
NASHVILLE      CLEAR     77  71  82 CALM      30.05F
$$

...KEY TO REMARKS...
VSB - VISIBILITY IN MILES
WCI - WIND CHILL INDEX
HX  - HEAT INDEX

$$


USA.gov is the U.S. government's official web portal to all federal, state and local government web resources and services.